| time (UTC) | temp F | wind direction | speed MPH | gust MPH | rain 1hr in | rain 24hr in | rain mn in | humidity % | barometer mb |
| 20260509221616 | 73 | 0.0 | 0.0 | 0.00 | 0.03 | 0.01 | 84 | 1012.0 | |
| 20260509220616 | 73 | 0.0 | 1.0 | 0.00 | 0.03 | 0.01 | 84 | 1011.9 | |
| 20260509215616 | 72 | 0.0 | 1.0 | 0.00 | 0.03 | 0.01 | 85 | 1011.9 | |
| 20260509214617 | 73 | 0.0 | 1.0 | 0.00 | 0.03 | 0.01 | 84 | 1011.8 | |
| 20260509213617 | 73 | 0.0 | 1.0 | 0.00 | 0.03 | 0.01 | 83 | 1011.9 | |
| 20260509212617 | 73 | 0.0 | 0.0 | 0.00 | 0.03 | 0.01 | 83 | 1011.9 | |
| 20260509211618 | 73 | 0.0 | 0.0 | 0.00 | 0.03 | 0.01 | 83 | 1011.9 | |
| 20260509210617 | 73 | 0.0 | 0.0 | 0.00 | 0.03 | 0.01 | 83 | 1012.5 | |
| 20260509205618 | 73 | 0.0 | 0.0 | 0.00 | 0.03 | 0.01 | 84 | 1012.6 | |
| 20260509204618 | 73 | 0.0 | 0.0 | 0.00 | 0.03 | 0.01 | 81 | 1012.5 | |
| 20260509203616 | 73 | 0.0 | 0.0 | 0.00 | 0.03 | 0.01 | 80 | 1012.2 | |
| 20260509202616 | 74 | 0.0 | 0.0 | 0.00 | 0.03 | 0.01 | 81 | 1012.1 | |
| 20260509201617 | 74 | 0.0 | 0.0 | 0.00 | 0.03 | 0.01 | 81 | 1012.0 | |
| 20260509200616 | 73 | 0.0 | 0.0 | 0.00 | 0.03 | 0.01 | 80 | 1012.2 | |
| 20260509195616 | 73 | 0.0 | 0.0 | 0.00 | 0.03 | 0.01 | 80 | 1012.3 | |
| 20260509194616 | 73 | 0.0 | 0.0 | 0.00 | 0.03 | 0.01 | 81 | 1012.4 | |
| 20260509193616 | 73 | 225 | 1.0 | 2.0 | 0.00 | 0.03 | 0.01 | 81 | 1012.6 |
| 20260509192616 | 72 | 0.0 | 1.0 | 0.00 | 0.03 | 0.01 | 83 | 1012.6 | |
| 20260509191616 | 72 | 23 | 1.0 | 1.0 | 0.00 | 0.03 | 0.01 | 83 | 1012.7 |
| 20260509190616 | 72 | 0 | 1.0 | 3.0 | 0.01 | 0.03 | 0.01 | 83 | 1012.8 |
| 20260509185616 | 72 | 0 | 2.0 | 4.0 | 0.01 | 0.03 | 0.01 | 83 | 1012.8 |
| 20260509184616 | 72 | 0 | 1.0 | 2.0 | 0.01 | 0.03 | 0.01 | 85 | 1013.0 |
| 20260509183616 | 72 | 0.0 | 1.0 | 0.01 | 0.03 | 0.01 | 85 | 1013.0 | |
| 20260509182616 | 72 | 23 | 1.0 | 2.0 | 0.01 | 0.03 | 0.01 | 84 | 1013.0 |
| 20260509181616 | 73 | 248 | 1.0 | 3.0 | 0.01 | 0.03 | 0.01 | 83 | 1012.9 |
| 20260509180616 | 74 | 0.0 | 0.0 | 0.00 | 0.02 | 0.00 | 81 | 1012.5 | |
| 20260509175617 | 75 | 0.0 | 1.0 | 0.00 | 0.02 | 0.00 | 77 | 1012.2 | |
| 20260509174616 | 76 | 0.0 | 1.0 | 0.00 | 0.02 | 0.00 | 76 | 1012.2 | |
| 20260509173616 | 76 | 0.0 | 1.0 | 0.00 | 0.02 | 0.00 | 76 | 1012.4 | |
| 20260509172616 | 77 | 0.0 | 1.0 | 0.00 | 0.02 | 0.00 | 76 | 1012.7 | |
| 20260509171617 | 77 | 0.0 | 1.0 | 0.00 | 0.02 | 0.00 | 74 | 1012.8 | |
| 20260509170616 | 77 | 0.0 | 1.0 | 0.00 | 0.02 | 0.00 | 73 | 1012.9 | |
| 20260509165617 | 78 | 23 | 1.0 | 1.0 | 0.00 | 0.02 | 0.00 | 71 | 1012.8 |
| 20260509164616 | 78 | 23 | 1.0 | 2.0 | 0.00 | 0.02 | 0.00 | 72 | 1012.9 |
| 20260509163616 | 78 | 0.0 | 1.0 | 0.00 | 0.02 | 0.00 | 72 | 1013.3 | |
| 20260509162616 | 79 | 0.0 | 1.0 | 0.00 | 0.02 | 0.00 | 70 | 1013.1 | |
| 20260509161616 | 80 | 0 | 2.0 | 4.0 | 0.00 | 0.02 | 0.00 | 68 | 1013.3 |
| 20260509160616 | 79 | 23 | 1.0 | 1.0 | 0.00 | 0.02 | 0.00 | 70 | 1013.2 |
| 20260509155616 | 79 | 338 | 1.0 | 2.0 | 0.00 | 0.02 | 0.00 | 71 | 1013.0 |
| 20260509154616 | 79 | 23 | 1.0 | 2.0 | 0.00 | 0.02 | 0.00 | 74 | 1013.1 |
| 20260509153616 | 78 | 23 | 1.0 | 2.0 | 0.00 | 0.02 | 0.00 | 75 | 1013.1 |
| 20260509152616 | 77 | 23 | 1.0 | 2.0 | 0.00 | 0.02 | 0.00 | 76 | 1013.3 |
| 20260509151616 | 78 | 0.0 | 1.0 | 0.00 | 0.02 | 0.00 | 76 | 1013.6 | |
| 20260509150616 | 77 | 23 | 1.0 | 2.0 | 0.00 | 0.02 | 0.00 | 79 | 1013.8 |
| 20260509145616 | 76 | 23 | 1.0 | 3.0 | 0.00 | 0.02 | 0.00 | 83 | 1013.7 |
| 20260509144616 | 73 | 0.0 | 1.0 | 0.00 | 0.02 | 0.00 | 87 | 1013.9 | |
| 20260509143616 | 73 | 23 | 1.0 | 2.0 | 0.00 | 0.02 | 0.00 | 87 | 1014.0 |
| 20260509142616 | 72 | 0.0 | 1.0 | 0.00 | 0.02 | 0.00 | 88 | 1013.9 | |
| 20260509141636 | 72 | 0.0 | 0.0 | 0.00 | 0.02 | 0.00 | 89 | 1013.8 | |
| 20260509140617 | 72 | 0.0 | 1.0 | 0.00 | 0.02 | 0.00 | 88 | 1013.8 | |
| 20260509135616 | 72 | 0.0 | 1.0 | 0.00 | 0.02 | 0.00 | 89 | 1013.8 | |
| 20260509134617 | 72 | 0.0 | 1.0 | 0.00 | 0.02 | 0.00 | 90 | 1013.7 | |
| 20260509133616 | 72 | 0.0 | 1.0 | 0.00 | 0.02 | 0.00 | 90 | 1013.6 | |
| 20260509132616 | 70 | 0.0 | 1.0 | 0.00 | 0.02 | 0.00 | 93 | 1013.4 | |
| 20260509131616 | 69 | 0.0 | 1.0 | 0.00 | 0.02 | 0.00 | 94 | 1013.5 | |
| 20260509130616 | 67 | 0.0 | 0.0 | 0.00 | 0.02 | 0.00 | 94 | 1013.6 | |
| 20260509125616 | 67 | 0.0 | 0.0 | 0.00 | 0.02 | 0.00 | 95 | 1013.6 | |
| 20260509124616 | 66 | 0 | 1.0 | 1.0 | 0.00 | 0.02 | 0.00 | 96 | 1013.7 |
| 20260509123636 | 66 | 0.0 | 0.0 | 0.00 | 0.02 | 0.00 | 96 | 1013.8 | |
| 20260509122636 | 65 | 0.0 | 0.0 | 0.00 | 0.02 | 0.00 | 96 | 1013.9 | |
| 20260509121616 | 65 | 0.0 | 0.0 | 0.00 | 0.02 | 0.00 | 96 | 1013.7 | |
| 20260509120616 | 65 | 0.0 | 0.0 | 0.00 | 0.02 | 0.00 | 96 | 1013.7 | |
| 20260509115616 | 65 | 0.0 | 0.0 | 0.00 | 0.02 | 0.00 | 96 | 1013.4 | |
| 20260509114616 | 64 | 0.0 | 0.0 | 0.00 | 0.02 | 0.00 | 96 | 1013.3 | |
| 20260509113616 | 63 | 0.0 | 0.0 | 0.00 | 0.02 | 0.00 | 96 | 1013.2 | |
| 20260509112616 | 63 | 0.0 | 0.0 | 0.00 | 0.02 | 0.00 | 96 | 1012.9 | |
| 20260509111616 | 62 | 0.0 | 0.0 | 0.00 | 0.02 | 0.00 | 96 | 1013.2 | |
| 20260509110616 | 62 | 0.0 | 0.0 | 0.00 | 0.02 | 0.00 | 96 | 1013.2 | |
| 20260509105616 | 62 | 0.0 | 0.0 | 0.00 | 0.02 | 0.00 | 96 | 1012.9 | |
| 20260509104616 | 62 | 0.0 | 0.0 | 0.00 | 0.02 | 0.00 | 96 | 1012.7 | |
| 20260509103616 | 62 | 0.0 | 0.0 | 0.00 | 0.02 | 0.00 | 96 | 1012.6 | |
| 20260509102617 | 62 | 0.0 | 0.0 | 0.00 | 0.02 | 0.00 | 96 | 1012.6 | |
| 20260509101616 | 62 | 0.0 | 0.0 | 0.00 | 0.02 | 0.00 | 96 | 1012.5 | |
| 20260509100616 | 61 | 0.0 | 0.0 | 0.00 | 0.02 | 0.00 | 96 | 1012.3 | |
| 20260509095616 | 61 | 0.0 | 0.0 | 0.00 | 0.02 | 0.00 | 96 | 1011.8 | |
| 20260509094616 | 62 | 0.0 | 0.0 | 0.00 | 0.02 | 0.00 | 95 | 1011.8 | |
| 20260509093617 | 62 | 0.0 | 0.0 | 0.00 | 0.02 | 0.00 | 95 | 1011.9 | |
| 20260509092616 | 62 | 0.0 | 0.0 | 0.00 | 0.02 | 0.00 | 95 | 1011.8 | |
| 20260509091615 | 62 | 0.0 | 0.0 | 0.00 | 0.02 | 0.00 | 95 | 1012.0 | |
| 20260509090616 | 63 | 0.0 | 0.0 | 0.00 | 0.02 | 0.00 | 95 | 1012.3 | |
| 20260509085638 | 63 | 0.0 | 0.0 | 0.00 | 0.02 | 0.00 | 95 | 1012.7 | |
| 20260509084618 | 63 | 0.0 | 0.0 | 0.00 | 0.02 | 0.00 | 95 | 1012.7 | |
| 20260509083618 | 63 | 0.0 | 0.0 | 0.00 | 0.02 | 0.00 | 95 | 1012.7 | |
| 20260509082618 | 63 | 0.0 | 0.0 | 0.00 | 0.02 | 0.00 | 95 | 1012.6 | |
| 20260509081618 | 63 | 0.0 | 0.0 | 0.00 | 0.02 | 0.00 | 95 | 1012.5 | |
| 20260509080638 | 63 | 0.0 | 0.0 | 0.00 | 0.02 | 0.00 | 95 | 1012.5 | |
| 20260509075618 | 64 | 0.0 | 1.0 | 0.00 | 0.02 | 0.00 | 95 | 1012.7 | |
| 20260509074658 | 64 | 0.0 | 0.0 | 0.00 | 0.02 | 0.00 | 95 | 1012.8 | |
| 20260509073638 | 64 | 0 | 1.0 | 1.0 | 0.00 | 0.02 | 0.00 | 95 | 1012.7 |
| 20260509072617 | 64 | 0.0 | 0.0 | 0.00 | 0.02 | 0.00 | 95 | 1012.8 | |
| 20260509071618 | 64 | 0.0 | 0.0 | 0.00 | 0.02 | 0.00 | 95 | 1013.1 | |
| 20260509070618 | 64 | 0.0 | 0.0 | 0.00 | 0.02 | 0.00 | 95 | 1013.3 | |
| 20260509065618 | 64 | 0.0 | 0.0 | 0.00 | 0.02 | 0.00 | 95 | 1013.1 | |
| 20260509064618 | 64 | 0.0 | 1.0 | 0.00 | 0.02 | 0.00 | 95 | 1012.9 | |
| 20260509063618 | 64 | 0.0 | 0.0 | 0.00 | 0.02 | 0.00 | 95 | 1013.0 | |
| 20260509062618 | 64 | 0.0 | 0.0 | 0.00 | 0.02 | 0.00 | 95 | 1013.0 | |
| 20260509061618 | 64 | 0.0 | 0.0 | 0.00 | 0.02 | 0.00 | 95 | 1013.1 | |
| 20260509060617 | 64 | 0.0 | 0.0 | 0.00 | 0.02 | 0.00 | 95 | 1013.4 | |
| 20260509055638 | 64 | 0.0 | 0.0 | 0.00 | 0.02 | 0.00 | 94 | 1014.0 | |
| 20260509054617 | 64 | 0.0 | 0.0 | 0.00 | 0.02 | 0.00 | 94 | 1014.0 | |
| 20260509053638 | 64 | 0.0 | 0.0 | 0.00 | 0.02 | 0.00 | 94 | 1014.1 | |
| 20260509052619 | 64 | 0.0 | 0.0 | 0.00 | 0.02 | 0.00 | 94 | 1013.9 | |
| 20260509051619 | 64 | 0.0 | 0.0 | 0.00 | 0.02 | 0.00 | 94 | 1014.5 | |
| 20260509050618 | 64 | 0.0 | 0.0 | 0.00 | 0.02 | 0.00 | 94 | 1013.9 | |
| 20260509045619 | 64 | 0.0 | 0.0 | 0.01 | 0.02 | 0.00 | 94 | 1013.9 | |
| 20260509044618 | 64 | 0.0 | 0.0 | 0.01 | 0.02 | 0.00 | 94 | 1014.6 | |
| 20260509043619 | 65 | 0.0 | 0.0 | 0.01 | 0.02 | 0.00 | 94 | 1014.5 | |
| 20260509042638 | 65 | 0.0 | 0.0 | 0.01 | 0.02 | 0.00 | 93 | 1015.0 | |
| 20260509041638 | 65 | 0.0 | 0.0 | 0.01 | 0.02 | 0.00 | 93 | 1015.1 | |
| 20260509040659 | 65 | 0.0 | 0.0 | 0.01 | 0.02 | 0.00 | 93 | 1015.0 | |
| 20260509035616 | 65 | 0.0 | 0.0 | 0.01 | 0.01 | 0.01 | 93 | 1015.1 | |
| 20260509034617 | 65 | 0.0 | 0.0 | 0.01 | 0.01 | 0.01 | 92 | 1014.9 | |
| 20260509033617 | 65 | 0.0 | 0.0 | 0.01 | 0.01 | 0.01 | 92 | 1015.1 | |
| 20260509032617 | 65 | 0.0 | 0.0 | 0.01 | 0.01 | 0.01 | 92 | 1014.6 | |
| 20260509031618 | 65 | 0.0 | 0.0 | 0.01 | 0.01 | 0.01 | 91 | 1014.8 | |
| 20260509030617 | 65 | 0.0 | 0.0 | 0.01 | 0.01 | 0.01 | 90 | 1015.1 | |
| 20260509025636 | 65 | 0.0 | 0.0 | 0.00 | 0.00 | 0.00 | 89 | 1015.5 | |
| 20260509024617 | 65 | 0.0 | 0.0 | 0.00 | 0.00 | 0.00 | 88 | 1015.3 | |
| 20260509023617 | 65 | 0.0 | 0.0 | 0.00 | 0.00 | 0.00 | 87 | 1015.4 | |
| 20260509022636 | 66 | 0.0 | 0.0 | 0.00 | 0.00 | 0.00 | 86 | 1015.7 | |
| 20260509021618 | 66 | 0.0 | 0.0 | 0.00 | 0.00 | 0.00 | 85 | 1015.6 | |
| 20260509020617 | 66 | 0.0 | 0.0 | 0.00 | 0.00 | 0.00 | 85 | 1016.0 | |
| 20260509015617 | 66 | 0.0 | 0.0 | 0.00 | 0.00 | 0.00 | 84 | 1016.0 | |
| 20260509014617 | 66 | 0.0 | 0.0 | 0.00 | 0.00 | 0.00 | 84 | 1016.1 | |
| 20260509013616 | 66 | 0.0 | 0.0 | 0.00 | 0.00 | 0.00 | 84 | 1015.9 | |
| 20260509012617 | 66 | 0.0 | 0.0 | 0.00 | 0.00 | 0.00 | 83 | 1015.6 | |
| 20260509011616 | 66 | 0.0 | 0.0 | 0.00 | 0.00 | 0.00 | 82 | 1015.3 | |
| 20260509010616 | 67 | 0.0 | 0.0 | 0.00 | 0.00 | 0.00 | 81 | 1014.8 | |
| 20260509005617 | 67 | 0.0 | 0.0 | 0.00 | 0.00 | 0.00 | 81 | 1014.9 | |
| 20260509004616 | 67 | 0.0 | 0.0 | 0.00 | 0.00 | 0.00 | 80 | 1015.1 | |
| 20260509003617 | 67 | 0.0 | 0.0 | 0.00 | 0.00 | 0.00 | 80 | 1015.0 | |
| 20260509002616 | 67 | 0.0 | 0.0 | 0.00 | 0.00 | 0.00 | 78 | 1015.0 | |
| 20260509001616 | 67 | 0.0 | 0.0 | 0.00 | 0.00 | 0.00 | 77 | 1015.0 | |
| 20260509000636 | 68 | 0.0 | 0.0 | 0.00 | 0.00 | 0.00 | 77 | 1015.0 | |
| 20260508235616 | 68 | 0.0 | 0.0 | 0.00 | 0.00 | 0.00 | 75 | 1014.8 | |
| 20260508234616 | 68 | 0.0 | 0.0 | 0.00 | 0.00 | 0.00 | 74 | 1014.5 | |
| 20260508233616 | 69 | 0.0 | 0.0 | 0.00 | 0.00 | 0.00 | 73 | 1014.5 | |
| 20260508232616 | 69 | 0.0 | 0.0 | 0.00 | 0.00 | 0.00 | 73 | 1014.3 | |
| 20260508231616 | 69 | 0.0 | 0.0 | 0.00 | 0.00 | 0.00 | 71 | 1014.3 | |
| 20260508230616 | 70 | 0.0 | 1.0 | 0.00 | 0.00 | 0.00 | 70 | 1013.9 | |
| 20260508225616 | 70 | 0.0 | 0.0 | 0.00 | 0.00 | 0.00 | 70 | 1013.9 | |
| 20260508224616 | 71 | 0.0 | 1.0 | 0.00 | 0.00 | 0.00 | 69 | 1014.0 | |
| 20260508223616 | 71 | 0.0 | 2.0 | 0.00 | 0.00 | 0.00 | 68 | 1014.1 | |
| 20260508222617 | 71 | 0.0 | 1.0 | 0.00 | 0.00 | 0.00 | 66 | 1014.2 |